Tracking 25693 objects as of 1-Jul-2022
HD Live streaming from Space Station
objects crossing your sky now

FENGYUN 1C DEB

Track FENGYUN 1C DEB now!
10-day predictions


NORAD ID: 30322
Int'l Code: 1999-025AAK
Perigee: 807.0 km
Apogee: 1,004.6 km
Inclination: 98.5 °
Period: 103.0 minutes
Semi major axis: 7276 km
RCS: 0.0387 m2 (small)
Launch date: May 10, 1999
Source: People's Republic of China (PRC)
Launch site: Taiyaun Space Center, China (TSC)

Note: This is SATELLITE DEBRIS
aabbcc
Your satellite tracking list
Your tracking list is empty




NASA's NSSDC Master Catalog

Two Line Element Set (TLE):
1 30322U 99025AAK 22181.25102546  .00000862  00000-0  58082-3 0  9996
2 30322  98.4523 115.6650 0135743 210.2217 149.1069 13.98592201786523
Source of the keplerian elements: AFSPC